This is the latest recevied weather packets stored in our database for station/object KM4LTG. If no packets are shown the sender has not sent any weather packets the latest 1 day(s).
| Time | Temp. | Humidity | Pressure | Rain* | Wind** | Luminosity | Snow |
|---|---|---|---|---|---|---|---|
| 1777986510 | 23.89° C | 73% | 1016.5 hPa | 0 mm | 1.79 m/s, 90° | - | - |
| 1777986240 | 23.33° C | 73% | 1016.5 hPa | 0 mm | 2.24 m/s, 135° | - | - |
| 1777985980 | 23.33° C | 73% | 1016.4 hPa | 0 mm | 1.79 m/s, 112° | - | - |
| 1777985740 | 23.33° C | 73% | 1016.4 hPa | 0 mm | 1.79 m/s, 112° | - | - |
| 1777985465 | 23.33° C | 74% | 1016.3 hPa | 0 mm | 2.24 m/s, 90° | - | - |
| 1777985175 | 23.33° C | 75% | 1016.5 hPa | 0 mm | 0.89 m/s, 135° | - | - |
| 1777984915 | 23.33° C | 75% | 1016.5 hPa | 0 mm | 2.24 m/s, 90° | - | - |
| 1777984670 | 23.33° C | 75% | 1016.6 hPa | 0 mm | 1.79 m/s, 90° | - | - |
| 1777984405 | 22.78° C | 76% | 1016.7 hPa | 0 mm | 2.24 m/s, 90° | - | - |
| 1777984125 | 22.78° C | 75% | 1016.6 hPa | 0 mm | 1.79 m/s, 112° | - | - |
| 1777983860 | 22.78° C | 76% | 1016.7 hPa | 0 mm | 1.34 m/s, 135° | - | - |
| 1777983590 | 22.78° C | 76% | 1016.5 hPa | 0 mm | 2.24 m/s, 112° | - | - |
| 1777983319 | 22.78° C | 76% | 1016.5 hPa | 0 mm | 2.24 m/s, 112° | - | - |
| 1777983074 | 22.78° C | 76% | 1016.7 hPa | 0 mm | 1.34 m/s, 112° | - | - |
| 1777982778 | 22.78° C | 77% | 1016.7 hPa | 0 mm | 1.34 m/s, 90° | - | - |
| 1777982535 | 22.22° C | 78% | 1016.6 hPa | 0 mm | 0.89 m/s, 90° | - | - |
| 1777982254 | 22.22° C | 78% | 1016.6 hPa | 0 mm | 1.34 m/s, 90° | - | - |
| 1777981985 | 22.22° C | 78% | 1016.6 hPa | 0 mm | 0.89 m/s, 90° | - | - |
| 1777981730 | 22.22° C | 78% | 1016.4 hPa | 0 mm | 0.89 m/s, 112° | - | - |
| 1777981455 | 22.22° C | 79% | 1016.3 hPa | 0 mm | 0.89 m/s, 90° | - | - |
| 1777981180 | 22.22° C | 79% | 1016.1 hPa | 0 mm | 1.34 m/s, 112° | - | - |
| 1777980905 | 21.67° C | 79% | 1016 hPa | 0 mm | 0.89 m/s, 90° | - | - |
| 1777980620 | 21.67° C | 79% | 1016 hPa | 0 mm | 0.89 m/s, 90° | - | - |
| 1777980345 | 21.67° C | 80% | 1015.9 hPa | 0 mm | 0.89 m/s, 90° | - | - |
| 1777980070 | 21.67° C | 80% | 1015.8 hPa | 0 mm | 0.89 m/s, 90° | - | - |
* Rain latest hour (hover to see other rain measurements)
** Current wind speed in m/s (hover to see current wind gust speed)